"TOA5","AWS1","CR1000","7964","CR1000.Std.14","CPU:AWS1_114.CR1","64363","TBL110"
"TIMESTAMP","RECORD","Wind_spd_WVc(1)","Wind_spd_WVc(2)","Air_Temp_Avg","Humidity_Avg","SW_upper_Wm2_Avg","Rain_Tot","Press_Avg","Issui_Tot","Depth_cm","SR50A_Raw","Quality","Ground_Temp_Avg(1)","Ground_Temp_Avg(2)","SW_lower_Wm2_Avg","Albedo_Avg","SWC_per(1)","SWC_per(2)","Period(1)","Period(2)"
"TS","RN","","","","","","","","","","","","","","","","","","",""
"","","WVc","WVc","Avg","Avg","Avg","Tot","Avg","Tot","Smp","Smp","Smp","Avg","Avg","Avg","Avg","Smp","Smp","Smp","Smp"
"2017-12-29 00:00:00",320893,0.805,210.7,-7.531,82.6,0,0,864.5276,0,59.88,2.617,221,2.199,2.95,0.04932767,0,52.49,60.21,33.91,35.73
"2017-12-29 00:10:00",320894,0.817,214.5,-7.588,84,0,0,864.4982,0,60.12,2.615,219,2.208,2.946,0.022767,0,52.55,60.21,33.92,35.73
"2017-12-29 00:20:00",320895,1.04,207.1,-7.444,81.7,0,0,864.4847,0,60.32,2.613,214,2.207,2.952,0.04932841,0,52.49,60.27,33.91,35.74
"2017-12-29 00:30:00",320896,0.697,190.6,-7.488,81.6,0,0,864.4231,0,60.08,2.615,212,2.197,2.947,0,0,52.55,60.27,33.92,35.74
"2017-12-29 00:40:00",320897,0.341,229.1,-7.617,82.7,0,0,864.4205,0,60.2,2.615,209,2.195,2.959,0,0,52.55,60.21,33.92,35.73
"2017-12-29 00:50:00",320898,0.708,183.2,-7.713,83.9,0,0,864.2278,0,60.39,2.613,212,2.186,2.972,0,0,52.55,60.21,33.92,35.73
"2017-12-29 01:00:00",320899,0.717,239.1,-7.658,84.3,0,0,864.2086,0,60.74,2.609,209,2.181,2.975,0.04933072,0,52.55,60.21,33.92,35.73
"2017-12-29 01:10:00",320900,0.654,220.2,-7.532,83.2,0,0,864.2858,0,60.58,2.61,207,2.186,2.979,0.06450986,0,52.55,60.21,33.92,35.73
"2017-12-29 01:20:00",320901,0.815,226.3,-7.441,82,0,0,864.317,0,61,2.606,203,2.193,2.98,0.0569207,0,52.49,60.21,33.91,35.73
"2017-12-29 01:30:00",320902,0.367,219.4,-7.537,83.7,0,0,864.4484,0,61.27,2.603,208,2.184,2.979,0,0,52.49,60.21,33.91,35.73
"2017-12-29 01:40:00",320903,0.512,231.7,-7.449,82.7,0,0,864.447,0,61.29,2.603,214,2.176,2.981,0.02276834,0,52.49,60.21,33.91,35.73
"2017-12-29 01:50:00",320904,0.886,209.4,-7.507,82.2,0,0,864.4515,0,61.27,2.603,208,2.172,2.988,0,0,52.49,60.21,33.91,35.73
"2017-12-29 02:00:00",320905,0.854,216.9,-7.586,82.2,0,0,864.2409,0,60.93,2.608,205,2.189,2.991,0,0,52.49,60.21,33.91,35.73
"2017-12-29 02:10:00",320906,0.506,223.8,-7.854,82.6,0.169231,0,863.9368,0,60.87,2.609,206,2.169,2.997,0,0,52.49,60.21,33.91,35.73
"2017-12-29 02:20:00",320907,0.386,232.4,-8.06,82,0.25188,0,863.7054,0,60.53,2.615,208,2.154,3.012,0,0,52.49,60.21,33.91,35.73
"2017-12-29 02:30:00",320908,0.337,297.4,-8.41,85.6,0.2518812,0,863.7117,0,60.16,2.62,200,2.153,3.017,0,0,52.49,60.21,33.91,35.73
"2017-12-29 02:40:00",320909,0.362,228.8,-8.56,86,0.102327,0,863.6789,0,61.32,2.608,219,2.16,2.989,0,0,52.49,60.21,33.91,35.73
"2017-12-29 02:50:00",320910,0.587,286.3,-8.68,85,0,0,863.7392,0,60.47,2.616,203,2.194,2.94,0,0,52.55,60.21,33.92,35.73
"2017-12-29 03:00:00",320911,0.487,300.1,-8.37,82,0,0,863.8932,0,60.86,2.614,220,2.196,2.933,0.04553668,0,52.49,60.21,33.91,35.73
"2017-12-29 03:10:00",320912,0.494,287.6,-8.75,83.4,0,0,863.8746,0,61.53,2.607,225,2.193,2.937,0.03415251,0,52.49,60.21,33.91,35.73
"2017-12-29 03:20:00",320913,0.631,285.9,-8.44,81.8,0,0,863.7786,0,61.15,2.611,208,2.177,2.934,0.05692085,0,52.49,60.21,33.91,35.73
"2017-12-29 03:30:00",320914,0.959,301.8,-8.56,81.6,0,0,863.9756,0,61.15,2.61,209,2.163,2.943,0.0493314,0,52.49,60.15,33.91,35.71
"2017-12-29 03:40:00",320915,0.943,275.1,-8.46,81.4,0,0,863.9778,0,60.67,2.614,204,2.163,2.947,0.03035779,0,52.49,60.21,33.91,35.73
"2017-12-29 03:50:00",320916,0.496,211,-8.91,82.7,0.007871317,0,863.8851,0,61.76,2.605,211,2.147,2.957,0,0,52.55,60.21,33.92,35.73
"2017-12-29 04:00:00",320917,0.559,235.8,-8.53,83.9,0,0,863.7227,0,61.56,2.606,209,2.129,2.964,0.1252259,0,52.49,60.21,33.91,35.73
"2017-12-29 04:10:00",320918,0.27,295.7,-8.54,83.2,0,0,863.7248,0,60.84,2.614,202,2.123,2.966,0.03794723,0,52.49,60.15,33.91,35.71
"2017-12-29 04:20:00",320919,0.533,187.8,-8.99,85.4,0,0,863.7248,0,61.45,2.609,205,2.11,2.971,0,0,52.49,60.15,33.91,35.71
"2017-12-29 04:30:00",320920,0.494,239,-9.14,86.2,0.1023271,0,863.7122,0,60.86,2.614,190,2.112,2.974,0.01138417,0,52.49,60.21,33.91,35.73
"2017-12-29 04:40:00",320921,0.787,212.6,-8.74,83.6,0,0,863.6889,0,61.13,2.61,192,2.112,2.975,0.3073726,0,52.49,60.21,33.91,35.73
"2017-12-29 04:50:00",320922,0.768,203,-8.44,82.5,0,0,863.7059,0,60.96,2.61,195,2.11,2.974,0.4515721,0,52.49,60.15,33.91,35.71
"2017-12-29 05:00:00",320923,0.744,201.8,-8.23,81.8,0,0,863.611,0,60.92,2.61,197,2.116,2.969,0.2694254,0,52.49,60.15,33.91,35.71
"2017-12-29 05:10:00",320924,0.913,206.4,-7.954,80.3,0,0,863.6911,0,60.89,2.609,198,2.132,2.971,0.2959884,0,52.49,60.15,33.91,35.71
"2017-12-29 05:20:00",320925,1.019,171.3,-7.885,79.36,0,0,863.7248,0,60.69,2.611,193,2.16,2.962,0.1631731,0,52.49,60.21,33.91,35.73
"2017-12-29 05:30:00",320926,1.078,192.1,-7.981,79.92,0,0,863.7396,0,60.85,2.61,194,2.166,2.95,0,0,52.49,60.21,33.91,35.73
"2017-12-29 05:40:00",320927,0.807,190.9,-8,80.6,0,0,863.5477,0,60.93,2.609,198,2.16,2.941,0.03794723,0,52.49,60.21,33.91,35.73
"2017-12-29 05:50:00",320928,1.124,193.1,-7.808,79.88,0,0,863.5308,0,60.84,2.608,198,2.144,2.935,0.1024575,0,52.49,60.15,33.91,35.71
"2017-12-29 06:00:00",320929,0.941,182.2,-7.657,78.6,0,0,863.5519,0,60.69,2.61,190,2.153,2.933,0,0,52.49,60.15,33.91,35.71
"2017-12-29 06:10:00",320930,0.486,262.4,-7.816,80.2,0,0,863.5266,0,60.33,2.614,187,2.159,2.933,0,0,52.49,60.21,33.91,35.73
"2017-12-29 06:20:00",320931,0.45,179.8,-7.973,80.7,0.1180698,0,863.5012,0,60.42,2.614,196,2.162,2.937,0,0,52.49,60.21,33.91,35.73
"2017-12-29 06:30:00",320932,0.895,189.3,-7.793,77.41,0.01180698,0,863.4717,0,60.57,2.612,193,2.172,2.944,0,0,52.49,60.15,33.91,35.71
"2017-12-29 06:40:00",320933,0.658,179.4,-7.829,77.67,0,0,863.4717,0,60.1,2.617,197,2.169,2.949,0.01897362,0,52.49,60.21,33.91,35.73
"2017-12-29 06:50:00",320934,1.239,192.8,-7.588,76.85,0,0,863.3599,0,60.6,2.61,196,2.129,2.937,0.383267,0,52.49,60.21,33.91,35.73
"2017-12-29 07:00:00",320935,0.779,197.4,-7.494,77.3,0,0,863.2502,0,60.47,2.612,188,2.15,2.934,1.066317,0,52.49,60.21,33.91,35.73
"2017-12-29 07:10:00",320936,1.365,186.5,-7.34,76.08,0.01967829,0,863.2228,0,60.44,2.61,191,2.182,2.933,3.100289,1.302,52.44,60.15,33.89,35.71
"2017-12-29 07:20:00",320937,0.753,225.2,-7.042,74.47,0.5824774,0,863.2566,0,60.29,2.61,190,2.186,2.933,5.783158,12.45,52.49,60.21,33.91,35.73
"2017-12-29 07:30:00",320938,0.777,186.3,-6.951,74.87,1.550649,0,863.3621,0,60.23,2.611,192,2.193,2.933,9.042826,5.935,52.49,60.15,33.91,35.71
"2017-12-29 07:40:00",320939,0.868,209,-6.91,75.13,2.916323,0,863.3304,0,59.92,2.614,189,2.185,2.933,14.50723,5,52.49,60.15,33.91,35.71
"2017-12-29 07:50:00",320940,0.798,205.3,-6.732,75.25,3.746747,0,863.4485,0,59.85,2.614,190,2.161,2.932,18.00217,4.807,52.49,60.15,33.91,35.71
"2017-12-29 08:00:00",320941,0.371,193.6,-6.761,77.42,4.171798,0,863.4738,0,59.84,2.615,177,2.153,2.93,18.79906,4.514,52.49,60.21,33.91,35.73
"2017-12-29 08:10:00",320942,0.309,258,-6.946,82.3,4.915637,0,863.71,0,59.83,2.614,184,2.154,2.916,20.87857,4.228,52.49,60.15,33.91,35.71
"2017-12-29 08:20:00",320943,0.423,250.6,-6.628,79.09,7.965773,0,863.7248,0,60.01,2.612,192,2.153,2.922,36.29653,4.558,52.49,60.21,33.91,35.73
"2017-12-29 08:30:00",320944,0.685,195.5,-6.633,78.71,9.075627,0,863.9631,0,59.57,2.616,193,2.152,2.957,39.94326,4.399,52.44,60.15,33.89,35.71
"2017-12-29 08:40:00",320945,1.002,188.3,-6.552,77.81,8.918201,0,864.0685,0,59.81,2.613,193,2.144,2.976,37.97759,4.254,52.49,60.21,33.91,35.73
"2017-12-29 08:50:00",320946,0.311,297.7,-6.57,80.9,7.284904,0,864.2828,0,59.82,2.615,194,2.132,2.969,31.62522,4.338,52.49,60.21,33.91,35.73
"2017-12-29 09:00:00",320947,0.292,327,-7.12,86.8,8.843425,0,864.4786,0,59.94,2.615,193,2.125,2.962,37.00994,4.182,52.49,60.21,33.91,35.73
"2017-12-29 09:10:00",320948,0.338,45.9,-6.656,83.8,16.72229,0,864.4418,0,59.33,2.617,200,2.146,2.948,68.28097,4.092,52.49,60.21,33.91,35.73
"2017-12-29 09:20:00",320949,0.459,336.5,-6.28,80.4,16.2806,0,864.412,0,59.52,2.615,201,2.159,2.931,52.15464,3.212,52.49,60.21,33.91,35.73
"2017-12-29 09:30:00",320950,0.653,305.1,-5.729,78.74,22.89036,0,864.1929,0,59.27,2.614,195,2.126,2.929,85.23581,3.743,52.49,60.15,33.91,35.71
"2017-12-29 09:40:00",320951,0.549,142.8,-5.601,78.05,21.32631,0,864.06,0,59.36,2.613,200,2.094,2.936,70.15578,3.313,52.49,60.15,33.91,35.71
"2017-12-29 09:50:00",320952,0.544,156.6,-5.067,73.83,29.64246,0,863.8482,0,59.35,2.611,199,2.077,3.009,118.603,4.01,52.49,60.15,33.91,35.71
"2017-12-29 10:00:00",320953,0.782,195.2,-5.24,72.43,27.5839,0,863.6703,0,59.44,2.611,195,2.064,2.997,113.3304,4.109,52.49,60.21,33.91,35.73
"2017-12-29 10:10:00",320954,0.545,157.7,-5.061,70.58,28.10295,0,863.6279,0,59.75,2.606,198,2.051,2.949,115.5863,4.114,52.49,60.15,33.91,35.71
"2017-12-29 10:20:00",320955,0.741,205.2,-4.709,69.52,32.63912,0,863.5626,0,59.45,2.608,199,2.04,2.962,131.9508,4.043,52.49,60.21,33.91,35.73
"2017-12-29 10:30:00",320956,0.455,162.5,-4.446,66.78,33.98069,0,863.3897,0,59.48,2.606,196,2.091,2.961,136.8745,4.027,52.44,60.15,33.89,35.71
"2017-12-29 10:40:00",320957,0.578,204.7,-4.108,67.69,35.63703,0,863.3349,0,59.34,2.607,199,2.085,2.931,143.972,4.04,52.49,60.21,33.91,35.73
"2017-12-29 10:50:00",320958,0.344,177.2,-4.036,70.97,38.13532,0,863.1411,0,59.31,2.606,197,2.138,2.931,152.5414,4,52.49,60.15,33.91,35.71
"2017-12-29 11:00:00",320959,0.487,186.3,-3.905,69.64,37.94147,0,863.0267,0,59.4,2.605,197,2.144,2.92,150.0221,3.955,52.49,60.15,33.91,35.71
"2017-12-29 11:10:00",320960,1.179,224.1,-4.127,69.11,38.47986,0,862.808,0,59.34,2.607,193,2.115,2.873,145.0889,3.771,52.49,60.15,33.91,35.71
"2017-12-29 11:20:00",320961,0.874,204.4,-4.12,68.71,42.26365,0,862.6948,0,59.33,2.606,192,2.086,2.823,159.5837,3.772,52.49,60.21,33.91,35.73
"2017-12-29 11:30:00",320962,0.687,173.7,-3.953,70.68,47.10284,0,862.5137,0,59.36,2.604,196,2.07,2.8,174.3035,3.721,52.49,60.15,33.91,35.71
"2017-12-29 11:40:00",320963,0.571,191.1,-3.483,71.04,40.6477,0,862.5174,0,59.3,2.603,196,2.029,2.838,163.5906,4.027,52.49,60.15,33.91,35.71
"2017-12-29 11:50:00",320964,0.686,151.2,-3.675,71.46,40.8755,0,862.2581,0,59.35,2.605,196,2.052,2.864,156.2326,3.826,52.55,60.15,33.92,35.71
"2017-12-29 12:00:00",320965,0.485,206,-3.783,73.67,37.00929,0,862.2728,0,59.23,2.607,196,2.075,2.907,136.2932,3.678,52.49,60.15,33.91,35.71
"2017-12-29 12:10:00",320966,0.933,221.9,-3.914,74.98,44.30494,0,862.2327,0.5,59.15,2.607,215,2.092,2.925,159.9674,3.621,52.49,60.15,33.91,35.71
"2017-12-29 12:20:00",320967,0.553,167,-3.639,75.4,45.11513,0,862.2274,0,59.42,2.603,254,2.109,2.928,172.8076,3.838,52.44,60.15,33.89,35.71
"2017-12-29 12:30:00",320968,0.298,141,-3.431,75.97,44.3834,0,862.0156,0,57.91,2.617,227,2.142,2.927,169.2346,3.824,52.49,60.15,33.91,35.71
"2017-12-29 12:40:00",320969,0.353,240.5,-3.475,75.46,33.81374,0,861.9816,0,57.05,2.627,200,2.127,2.9,139.0495,4.115,52.49,60.15,33.91,35.71
"2017-12-29 12:50:00",320970,0.283,177.8,-3.717,76.08,33.66835,0,861.9406,0,57.11,2.627,217,2.087,2.857,134.2149,3.992,52.49,60.15,33.91,35.71
"2017-12-29 13:00:00",320971,0.271,23.17,-3.896,77.89,27.27192,0,861.925,0,58.65,2.612,197,2.071,2.842,109.723,4.026,52.44,60.15,33.89,35.71
"2017-12-29 13:10:00",320972,0.607,202.6,-4.105,79.14,26.08709,0,861.739,0,59.18,2.608,193,2.063,2.834,100.3994,3.849,52.44,60.15,33.89,35.71
"2017-12-29 13:20:00",320973,0.512,39.53,-4.176,80,36.26567,0,861.8036,0,58.84,2.611,226,2.059,2.834,136.6003,3.772,52.44,60.15,33.89,35.71
"2017-12-29 13:30:00",320974,0.422,264.2,-3.914,79.5,35.16064,0,861.6833,0,58.35,2.614,237,2.059,2.829,125.5567,3.631,52.44,60.15,33.89,35.71
"2017-12-29 13:40:00",320975,0.391,295.5,-3.944,78.2,37.22861,0,861.6285,0,59.41,2.605,302,2.05,2.828,102.4247,2.783,52.49,60.15,33.91,35.71
"2017-12-29 13:50:00",320976,0.41,308,-3.87,77.18,34.02039,0,861.5253,0,58.97,2.608,274,2.06,2.838,98.22442,2.886,52.44,60.15,33.89,35.71
"2017-12-29 14:00:00",320977,0.367,167.2,-3.638,75.57,26.80585,0,861.4326,0,57.88,2.619,217,2.06,2.838,73.47403,2.767,52.44,60.15,33.89,35.71
"2017-12-29 14:10:00",320978,0.256,334.2,-3.746,74.12,19.17849,0,861.4073,0,58.69,2.611,270,2.06,2.838,53.01867,2.761,52.49,60.15,33.91,35.71
"2017-12-29 14:20:00",320979,0.398,276.3,-3.823,74.88,23.8414,0,861.2429,0,58.52,2.614,228,2.06,2.838,46.72967,2.218,52.49,60.15,33.91,35.71
"2017-12-29 14:30:00",320980,0.242,277.1,-3.869,75.35,14.9284,0,861.1671,0,59.74,2.6,312,2.059,2.838,40.55818,2.741,52.49,60.15,33.91,35.71
"2017-12-29 14:40:00",320981,0.294,4.175,-3.59,73.18,16.43814,0,861.1207,0,58.85,2.609,273,2.054,2.838,56.79435,3.431,52.49,60.15,33.91,35.71
"2017-12-29 14:50:00",320982,0.502,325.2,-3.37,71.75,25.24499,0,861.0849,0,57.98,2.615,224,2.054,2.838,99.57017,3.938,52.49,60.15,33.91,35.71
"2017-12-29 15:00:00",320983,0.605,259.9,-3.161,70.85,20.18499,0,861.0933,0,58.08,2.614,203,2.057,2.838,79.04656,3.872,52.44,60.15,33.89,35.71
"2017-12-29 15:10:00",320984,0.34,250.1,-3.468,74.39,12.34925,0,860.9816,0,58.41,2.613,208,2.047,2.838,43.19281,3.495,52.49,60.15,33.91,35.71
"2017-12-29 15:20:00",320985,0.238,259.4,-3.538,74.67,9.514543,0,860.9332,0,58.09,2.616,215,2.025,2.838,41.4604,4.359,52.44,60.15,33.89,35.71
"2017-12-29 15:30:00",320986,0.576,268.6,-3.6,74.33,6.80565,0,861.0217,0,58.08,2.617,201,1.986,2.838,28.52985,4.175,52.49,60.15,33.91,35.71
"2017-12-29 15:40:00",320987,0.239,292.8,-3.779,78.1,7.069069,0,861.1818,0,58.51,2.613,201,1.988,2.838,31.12658,4.382,52.44,60.15,33.89,35.71
"2017-12-29 15:50:00",320988,0.326,293.4,-3.895,78.53,4.379835,0,861.1902,0,58.64,2.613,193,1.996,2.826,17.19903,3.914,52.49,60.15,33.91,35.71
"2017-12-29 16:00:00",320989,0.169,75.23,-4.032,81.7,3.102062,0,861.1734,0,58.28,2.617,182,2.039,2.802,11.69097,3.765,52.49,60.15,33.91,35.71
"2017-12-29 16:10:00",320990,0.026,295.6,-4.136,83.1,3.593555,0,861.1354,0,57.99,2.62,190,2.025,2.765,14.53426,4.027,52.44,60.09,33.89,35.7
"2017-12-29 16:20:00",320991,0.156,307.6,-4.256,84.1,2.693249,0,861.0891,0,58.12,2.619,181,1.993,2.776,11.01273,4.06,52.49,60.15,33.91,35.71
"2017-12-29 16:30:00",320992,0.141,91.6,-4.31,85.2,0.9869232,0,861.1376,0,57.8,2.623,193,1.999,2.82,3.195948,3.235,52.44,60.09,33.89,35.7
"2017-12-29 16:40:00",320993,0.042,249.3,-4.444,87.1,0.8493345,0,861.1794,0,57.44,2.627,196,2.006,2.845,2.828306,3.322,52.44,60.15,33.89,35.71
"2017-12-29 16:50:00",320994,0.031,306.6,-4.555,87.6,0.3656963,0,861.2451,0,57.4,2.628,195,2.013,2.826,0.7127834,1.848,52.44,60.15,33.89,35.71
"2017-12-29 17:00:00",320995,0.07,226.1,-4.492,90,0.007864512,0,861.4547,0,59.38,2.608,171,2.021,2.808,0,0,52.44,60.15,33.89,35.71
"2017-12-29 17:10:00",320996,0.009,266.7,-4.6,91.3,0,0.5,861.5271,0,59.53,2.607,171,2.037,2.817,0,0,52.44,60.15,33.89,35.71
"2017-12-29 17:20:00",320997,0.325,292.6,-4.724,92.7,0.01179843,0,861.7063,0,61.21,2.59,353,2.052,2.83,0,0,52.44,60.09,33.89,35.7
"2017-12-29 17:30:00",320998,0.053,317.2,-4.663,93.4,0,0,861.6721,0,59.33,2.609,194,2.059,2.837,0,0,52.44,60.09,33.89,35.7
"2017-12-29 17:40:00",320999,0.137,338.9,-4.689,93,0,0,861.8954,0,59.07,2.612,196,2.062,2.84,0,0,52.44,60.15,33.89,35.71
"2017-12-29 17:50:00",321000,0.041,14.66,-4.729,93.7,0,0,862.0225,0,59.27,2.61,172,2.062,2.841,0,0,52.49,60.15,33.91,35.71
"2017-12-29 18:00:00",321001,0.047,51.55,-4.685,93.8,0,0,862.0257,0,59.07,2.612,195,2.063,2.841,0,0,52.49,60.15,33.91,35.71
"2017-12-29 18:10:00",321002,0.075,92.4,-4.615,93.2,0,0.5,862.0323,0.5,59.48,2.607,202,2.064,2.841,0.1023875,0,52.49,60.15,33.91,35.71
"2017-12-29 18:20:00",321003,0.374,314.1,-4.524,91.3,0,0,862.0682,0,58.19,2.62,200,2.063,2.842,0.2237357,0,52.49,60.15,33.91,35.71
"2017-12-29 18:30:00",321004,0.305,227,-4.487,91.1,0,0,862.1777,0,61.13,2.59,315,2.068,2.841,0.05308982,0,52.44,60.15,33.89,35.71
"2017-12-29 18:40:00",321005,0.484,261.4,-4.544,91.4,0,0,862.2094,0,60.02,2.602,205,2.065,2.842,0,0,52.44,60.15,33.89,35.71
"2017-12-29 18:50:00",321006,0.61,304.4,-4.507,89.9,0,0,862.2852,0,60.22,2.6,198,2.059,2.844,0.01137639,0,52.44,60.15,33.89,35.71
"2017-12-29 19:00:00",321007,0.589,226.8,-4.576,90.2,0,0,862.3484,0,60.32,2.599,199,2.067,2.852,0,0,52.49,60.15,33.91,35.71
"2017-12-29 19:10:00",321008,0.693,264.9,-4.68,89.7,0,0.5,862.5065,0.5,58.97,2.613,265,2.061,2.855,0,0,52.49,60.15,33.91,35.71
"2017-12-29 19:20:00",321009,0.74,261.3,-4.73,90,0,0,862.5424,0,60.06,2.602,202,2.035,2.88,0,0,52.44,60.15,33.89,35.71
"2017-12-29 19:30:00",321010,0.902,304,-4.757,88.9,0,0,862.6035,0,60.6,2.597,198,2.025,2.883,0,0,52.44,60.15,33.89,35.71
"2017-12-29 19:40:00",321011,1.131,283.8,-4.902,90.5,0,0,862.8311,0,62.03,2.583,197,2.02,2.883,0,0,52.44,60.15,33.89,35.71
"2017-12-29 19:50:00",321012,1.345,296,-4.897,89.5,0,0,863.0166,0.5,62.42,2.579,173,2.01,2.883,0,0,52.44,60.15,33.89,35.71
"2017-12-29 20:00:00",321013,0.751,319.4,-4.927,89.8,0,0,863.0377,0,62.27,2.581,185,1.993,2.89,0,0,52.44,60.15,33.89,35.71
"2017-12-29 20:10:00",321014,1.175,307.3,-5.065,89.8,0,0,863.0334,0,61.71,2.587,197,1.982,2.898,0,0,52.44,60.15,33.89,35.71
"2017-12-29 20:20:00",321015,1.086,292,-5.097,88.1,0.08259235,0.5,862.9786,0,62.11,2.583,202,1.978,2.912,0,0,52.44,60.15,33.89,35.71
"2017-12-29 20:30:00",321016,0.729,262.9,-5.152,89.4,0,0,862.9786,0,63.24,2.572,197,1.975,2.91,0,0,52.44,60.15,33.89,35.71
"2017-12-29 20:40:00",321017,0.869,251.9,-5.264,92.3,0.01966484,0,863.1747,0.5,64.41,2.561,194,1.979,2.917,0,0,52.44,60.09,33.89,35.7
"2017-12-29 20:50:00",321018,1.142,304.9,-5.442,91.3,0.2359781,0,863.2864,0,64.22,2.564,185,1.976,2.924,0,0,52.44,60.15,33.89,35.71
"2017-12-29 21:00:00",321019,1.138,304.2,-5.56,89.8,0.2556441,0,863.3096,0,64.14,2.565,187,1.977,2.924,0,0,52.44,60.15,33.89,35.71
"2017-12-29 21:10:00",321020,0.775,304.8,-5.624,90.1,0.176986,0,863.2906,0,62.02,2.587,219,1.979,2.912,0,0,52.44,60.15,33.89,35.71
"2017-12-29 21:20:00",321021,0.437,291.2,-5.667,91.1,0,0.5,863.3223,0,64.97,2.557,222,1.982,2.91,0,0,52.44,60.15,33.89,35.71
"2017-12-29 21:30:00",321022,0.628,319.1,-5.748,92.3,0,0,863.2063,0.5,65.6,2.551,210,1.986,2.91,0,0,52.44,60.09,33.89,35.7
"2017-12-29 21:40:00",321023,0.3,285.6,-5.744,93,0,0,863.1262,0.5,66.09,2.546,200,1.993,2.926,0,0,52.44,60.09,33.89,35.7
"2017-12-29 21:50:00",321024,0.598,259.9,-5.785,93.3,0.04326542,0.5,863.1578,0,67.06,2.537,181,1.991,2.926,0,0,52.44,60.15,33.89,35.71
"2017-12-29 22:00:00",321025,1.784,267.3,-6.038,91.7,0.3736553,0,863.1431,0.5,67.05,2.538,194,1.992,2.941,0,0,52.44,60.15,33.89,35.71
"2017-12-29 22:10:00",321026,1.407,285.2,-6.146,91.7,0.2792614,0.5,863.2548,0,67.24,2.537,193,1.995,2.943,0,0,52.44,60.15,33.89,35.71
"2017-12-29 22:20:00",321027,1.396,259.3,-6.273,91,0.2360007,0,863.3159,0,66.85,2.541,182,2.001,2.947,0,0,52.44,60.09,33.89,35.7
"2017-12-29 22:30:00",321028,1.09,200.7,-6.337,91.3,0.1101374,0.5,863.299,0,66.86,2.541,197,2.012,2.941,0,0,52.44,60.15,33.89,35.71
"2017-12-29 22:40:00",321029,1.276,253,-6.403,91,0.2242163,0,863.423,0,67.39,2.536,191,2.019,2.906,0,0,52.44,60.15,33.89,35.71
"2017-12-29 22:50:00",321030,0.951,273.6,-6.405,91.1,0.1612821,0,863.5084,0.5,67.27,2.537,170,2.027,2.867,0,0,52.44,60.15,33.89,35.71
"2017-12-29 23:00:00",321031,1.072,259.9,-6.401,90.5,0.003933955,0,863.6028,0,67.19,2.538,174,2.042,2.865,0.003793132,0,52.44,60.09,33.89,35.7
"2017-12-29 23:10:00",321032,1.15,295.8,-6.39,89.6,0,0.5,863.8604,0,67,2.54,172,2.05,2.852,0.003793174,0,52.44,60.09,33.89,35.7
"2017-12-29 23:20:00",321033,1.42,298.3,-6.433,88.6,0,0,864.0024,0,68.11,2.529,204,2.069,2.862,0.007586619,0,52.44,60.15,33.89,35.71
"2017-12-29 23:30:00",321034,0.973,272.9,-6.46,88.6,0,0,863.9091,0,67.65,2.534,194,2.073,2.844,0,0,52.44,60.15,33.89,35.71
"2017-12-29 23:40:00",321035,0.832,111.2,-6.54,88.8,0,0,863.8736,0,66.96,2.541,196,2.094,2.849,0,0,52.38,60.09,33.88,35.7
"2017-12-29 23:50:00",321036,0.87,239.9,-6.555,88.2,0.00786862,0,863.727,0,66.47,2.546,197,2.106,2.845,0,0,52.44,60.09,33.89,35.7
